GFSGL_250_spd_057.txt.gz
Wind_Speed
61 61 63 64 66 68 69 69 71 72 72 73 75 80 86 89 90 92 93 93 93 95 98 99 105 111 111 113 116 120 127 125 122 121 123 126 129 128 120 119 113 112 114
64 66 66 68 69 71 72 73 74 75 74 76 81 84 88 91 93 95 95 95 98 99 102 108 111 110 113 117 124 126 124 122 122 124 127 128 127 123 114 110 111 111 112
69 69 70 72 75 76 78 77 76 75 77 80 82 87 91 94 94 95 98 103 104 108 110 115 113 117 121 125 128 126 125 126 126 127 126 123 121 115 110 110 109 108 108
73 74 76 79 81 80 75 76 76 78 82 86 90 92 93 93 95 101 103 104 108 110 115 114 120 123 126 128 125 123 126 127 130 127 123 120 116 112 110 106 105 103 102
78 79 79 80 78 80 82 82 82 81 84 89 92 95 97 101 104 106 106 106 110 113 115 118 120 123 126 125 126 125 128 128 127 127 122 117 114 112 110 107 102 97 90
82 83 81 82 82 84 84 84 86 88 93 94 94 98 99 104 109 109 109 106 105 109 114 118 121 120 126 126 127 130 130 131 127 121 119 117 116 113 109 102 95 88 83
87 85 81 84 86 89 90 90 89 91 93 96 103 105 104 106 109 112 111 111 114 116 119 122 124 127 129 131 133 131 132 131 125 121 119 117 112 110 103 95 89 81 81
84 82 79 83 87 91 94 96 98 100 104 105 110 106 105 110 112 110 112 116 119 124 129 132 136 135 134 136 135 136 133 129 124 120 116 115 114 107 97 90 81 77 76
79 78 83 85 85 89 93 97 102 104 109 112 116 113 113 111 110 112 113 114 118 123 127 134 138 141 142 143 141 133 129 130 124 120 115 113 107 102 95 83 78 72 68
82 82 83 85 90 90 95 100 103 107 113 111 116 116 117 116 119 119 122 122 124 130 133 138 142 143 146 145 132 130 129 126 121 117 114 108 102 96 92 81 74 69 65
85 89 87 89 93 99 99 102 107 114 116 117 116 116 120 120 124 126 128 130 133 133 138 142 145 150 144 134 132 131 128 121 118 116 110 106 99 95 86 79 74 68 63
92 93 92 95 97 100 105 107 113 116 117 114 116 122 125 125 127 132 134 136 138 139 143 147 148 140 136 135 134 131 122 118 115 110 106 98 94 89 80 77 73 69 64
98 98 97 99 104 106 108 111 115 117 119 119 122 127 127 130 131 135 139 140 144 144 146 143 138 135 135 134 128 125 122 115 112 106 99 93 90 84 79 75 72 69 67
104 105 103 104 107 111 112 118 119 120 121 120 128 132 132 133 138 140 141 144 147 147 142 136 135 135 130 127 126 123 119 115 109 103 96 91 85 82 79 74 70 67 64
111 111 109 110 114 116 119 121 123 124 122 130 131 135 136 138 141 143 143 144 144 139 136 136 132 129 128 126 124 119 116 109 102 97 91 85 81 78 77 72 65 58 58
118 118 118 119 120 122 124 126 128 131 132 133 137 136 142 142 142 140 141 137 134 137 134 131 129 128 126 123 120 115 110 103 97 91 85 82 79 77 76 71 60 54 55
123 124 125 127 127 129 129 130 132 134 135 138 142 138 135 134 136 134 134 134 134 132 131 131 127 126 124 119 114 109 104 100 96 90 85 82 78 77 75 69 62 60 56
127 127 128 129 130 132 133 133 136 139 139 135 132 132 131 131 131 133 134 130 130 130 128 126 124 122 119 113 106 100 97 94 88 85 83 79 77 76 73 67 63 61 59
132 130 129 130 131 133 134 133 131 131 130 130 129 129 130 131 130 130 131 128 127 126 125 123 121 118 114 109 102 98 94 90 86 82 79 77 75 74 70 66 62 59 59
127 127 126 125 125 125 126 127 126 126 128 129 129 128 128 129 127 125 123 123 121 121 120 119 118 114 109 103 99 95 91 87 81 79 77 74 72 70 68 64 61 57 57
121 121 121 121 121 121 122 123 126 127 127 127 127 126 124 124 122 122 121 120 120 119 116 114 110 107 102 99 96 92 86 82 79 77 75 72 69 67 65 62 59 56 54
116 117 118 120 121 121 122 123 124 125 125 124 123 122 122 122 122 121 120 119 116 114 111 108 106 103 99 95 90 86 83 79 77 74 71 69 66 64 62 60 58 55 52
117 118 119 119 121 122 122 121 122 122 121 121 121 121 120 120 119 119 117 114 111 109 106 104 102 99 94 90 87 84 81 76 73 69 66 66 64 62 59 57 54 53 50
119 119 119 119 119 119 119 119 119 119 119 119 119 119 118 117 115 111 107 104 103 102 100 95 92 90 87 84 82 79 76 72 68 65 64 62 60 57 56 54 52 50 47
117 117 117 117 117 117 117 117 117 117 116 116 115 114 111 107 104 101 100 99 95 91 89 87 85 84 81 78 77 75 72 69 66 63 61 58 57 55 53 51 49 47 44
115 116 116 116 116 115 114 114 114 113 111 109 106 103 101 99 97 95 92 89 86 84 82 80 80 78 77 74 73 71 69 67 63 60 57 55 54 53 51 48 45 43 42

GFSGL_250_spd_060.txt.gz
Wind_Speed
56 57 59 60 61 63 65 67 68 69 71 74 77 79 81 82 82 83 82 85 88 90 93 96 98 99 100 102 106 110 112 113 111 113 117 118 123 125 126 127 132 135 134
59 61 61 63 66 66 68 70 71 73 76 79 81 82 83 81 82 84 87 89 87 91 91 92 95 98 102 107 111 115 115 115 112 118 121 127 130 130 129 129 130 125 117
65 66 66 67 68 68 70 72 75 79 81 84 86 83 83 86 89 88 89 90 91 95 96 99 102 102 103 107 113 113 115 116 119 119 119 119 121 127 128 127 121 117 116
66 68 68 70 72 76 79 79 82 85 86 85 83 84 88 91 92 93 95 96 97 102 104 106 109 113 108 108 109 109 112 114 114 113 117 121 126 128 126 118 114 115 111
73 73 74 77 79 82 84 86 88 89 87 85 84 87 89 92 92 96 99 103 108 109 108 110 111 112 113 113 115 116 119 116 117 121 123 126 128 128 121 117 114 112 107
75 77 80 84 85 86 87 86 87 85 85 87 86 87 89 92 98 101 105 106 108 108 115 118 116 117 118 117 121 119 118 121 124 125 128 128 128 123 121 119 115 111 111
78 75 76 73 73 76 80 83 83 80 80 82 87 92 97 98 99 103 107 110 110 113 118 121 124 122 123 122 122 123 124 128 131 129 129 132 126 123 121 116 113 112 111
88 82 83 84 83 79 79 79 80 81 81 83 88 92 94 99 104 110 114 113 115 118 123 127 128 130 131 127 128 129 130 134 134 132 131 129 125 123 118 115 114 112 109
80 83 79 84 82 83 86 83 87 87 88 88 91 92 95 100 105 109 109 114 121 123 126 130 131 132 130 130 133 136 137 137 135 134 130 127 127 123 119 117 114 110 102
84 82 87 91 95 95 91 90 89 91 92 94 95 99 101 101 107 113 117 122 123 125 130 132 132 132 132 136 139 139 140 138 134 132 131 128 126 123 122 117 113 106 100
87 91 96 98 102 101 100 96 95 96 97 98 102 104 106 110 113 116 119 121 127 129 131 132 133 135 139 143 143 142 138 135 131 128 127 125 125 121 118 116 112 104 96
93 98 102 105 105 106 103 104 103 103 103 104 106 111 114 115 119 122 124 127 129 132 133 134 138 142 144 145 142 139 135 130 128 126 125 125 121 118 113 108 103 98 92
100 106 108 113 114 110 109 108 108 106 106 108 111 115 119 123 124 127 129 131 135 134 136 139 141 142 141 138 136 135 133 131 128 127 124 119 119 114 108 103 97 92 88
110 116 120 119 121 117 115 115 109 110 111 112 116 122 125 126 130 131 134 136 137 137 139 137 138 138 135 134 131 133 132 131 129 124 122 117 114 110 105 97 90 85 78
120 125 128 128 123 119 116 111 110 113 119 121 123 125 128 131 132 135 137 137 138 137 137 136 134 133 130 131 130 129 128 125 122 120 116 112 106 102 96 89 83 80 74
134 133 131 125 124 123 119 119 121 120 122 127 127 128 132 132 135 136 135 133 134 134 131 131 130 131 132 132 130 127 125 124 121 117 111 105 99 94 90 86 80 75 71
137 133 131 131 128 125 125 127 127 128 127 127 128 130 131 129 127 129 128 128 128 128 128 129 130 130 131 129 127 126 123 120 117 113 105 97 92 91 87 82 76 71 69
135 133 129 126 123 122 120 119 120 122 121 119 119 120 120 121 123 123 123 124 127 127 127 128 128 127 126 126 125 122 118 114 107 99 94 90 88 85 82 77 73 69 66
119 118 118 118 118 118 119 117 115 115 114 114 114 115 116 119 122 123 124 124 125 127 127 125 124 123 123 121 118 115 112 107 101 95 92 89 84 79 77 74 71 67 64
114 113 113 113 113 113 113 113 113 114 114 115 116 117 118 119 120 122 123 125 124 123 123 122 121 120 117 115 113 109 105 100 95 92 88 82 79 76 74 70 68 65 61
113 113 113 112 113 113 113 114 115 115 115 115 116 117 119 121 121 121 120 120 120 121 120 119 116 114 111 108 104 101 99 97 93 88 85 80 77 73 70 67 64 61 58
110 111 111 112 112 112 112 113 114 115 116 117 118 118 118 119 118 118 117 118 119 118 116 114 111 107 102 99 98 97 95 91 87 83 79 75 72 69 66 63 60 57 55
111 111 111 111 113 114 114 115 116 116 116 115 115 115 116 116 117 118 118 116 115 114 111 107 102 99 96 95 93 90 89 86 83 78 75 72 69 66 64 61 58 55 53
114 114 115 115 115 115 115 114 113 113 113 113 114 115 116 116 116 114 114 113 111 107 102 98 95 94 92 90 88 85 83 82 79 75 72 70 66 63 61 59 56 53 51
114 114 114 114 113 113 113 112 113 113 113 114 115 114 113 113 111 110 108 105 102 99 95 94 91 89 87 85 83 81 79 78 75 72 70 67 63 61 59 57 54 51 49
112 112 113 113 113 113 113 113 113 114 114 112 112 110 108 107 105 102 98 95 94 93 91 88 86 84 83 81 80 76 74 73 71 70 67 66 61 58 56 54 51 49 47

GFSGL_250_spd_063.txt.gz
Wind_Speed
57 55 56 57 59 61 61 61 62 63 66 68 70 71 73 74 78 80 81 85 86 84 84 86 91 95 95 91 92 95 99 103 107 109 113 116 117 116 116 119 123 123 125
59 59 61 61 64 65 66 67 68 69 71 73 74 75 78 82 84 86 88 87 85 85 88 92 96 100 96 93 97 100 104 109 111 114 117 120 122 122 123 126 128 129 129
63 63 64 67 68 69 70 72 74 76 77 78 80 83 85 87 87 87 87 88 88 89 93 95 99 99 97 99 102 106 108 109 111 114 119 123 124 128 130 130 131 130 130
69 69 69 71 71 71 73 75 76 78 81 82 83 85 84 83 83 82 82 84 89 93 96 99 100 102 104 106 107 111 114 116 115 117 121 123 128 131 132 129 129 129 126
72 74 73 72 73 74 78 76 77 78 79 79 79 79 74 75 78 79 81 83 83 86 95 100 101 104 107 109 112 112 115 118 121 124 126 128 133 135 134 130 128 123 117
79 80 78 76 78 79 80 82 85 85 77 75 77 74 75 74 79 81 83 84 87 91 99 100 100 103 108 108 111 113 117 120 124 127 130 135 137 136 132 129 124 119 113
80 81 81 82 83 87 90 90 86 80 83 81 80 81 84 83 84 85 84 85 91 100 104 102 103 109 113 112 116 118 121 126 131 132 133 136 134 133 129 124 121 119 118
85 84 85 85 87 89 92 93 91 90 87 83 85 86 89 90 92 93 94 96 100 103 104 104 108 112 116 119 121 125 129 133 135 135 135 134 133 129 127 123 121 118 116
89 90 91 91 89 89 93 95 90 94 94 87 89 89 95 98 98 102 100 104 109 110 108 111 113 116 119 120 124 129 134 137 135 137 137 135 132 131 127 125 122 119 113
88 90 93 95 95 94 93 97 93 89 92 95 92 94 98 103 109 112 107 112 112 108 111 113 116 121 123 126 131 134 135 140 138 138 138 136 133 131 130 127 126 121 116
87 86 91 94 97 96 96 94 96 93 91 95 96 98 104 107 116 117 113 111 112 113 115 118 122 126 130 134 137 139 140 136 137 136 134 133 132 131 130 129 124 121 115
91 93 92 93 97 95 95 100 102 96 98 99 103 105 113 117 118 116 113 114 114 115 117 122 127 131 133 139 139 136 138 138 134 133 132 131 131 131 129 126 121 115 110
102 100 100 100 101 103 104 102 99 103 104 104 111 114 115 118 120 118 113 116 119 122 123 128 135 137 140 140 142 140 136 134 133 131 132 131 130 128 123 121 116 109 104
104 107 109 106 108 109 109 108 109 111 114 116 121 118 119 121 118 115 118 123 127 129 133 134 135 135 136 133 132 132 131 132 133 132 131 131 128 125 122 117 111 104 97
112 114 113 117 118 120 120 117 117 120 122 123 122 126 127 120 118 125 128 128 129 129 125 125 126 125 128 126 126 128 129 131 130 130 128 124 123 120 116 110 105 97 90
124 122 124 124 128 126 125 127 129 129 130 129 128 119 124 126 127 123 122 119 120 120 121 123 124 123 124 126 128 129 129 129 127 124 122 120 117 114 109 104 97 91 85
125 126 129 129 128 131 125 123 122 120 121 122 123 122 121 120 120 119 118 118 119 120 121 122 124 125 126 128 130 131 130 127 122 120 117 115 112 109 103 95 89 85 80
127 119 117 116 116 117 117 118 118 116 114 115 115 116 117 118 117 118 117 117 119 120 122 124 125 126 128 128 128 127 125 123 121 118 114 110 106 100 94 89 84 79 76
113 111 110 109 110 110 110 111 111 112 113 113 114 115 115 116 115 116 116 118 120 121 122 124 125 125 124 123 122 121 121 120 118 114 109 103 96 92 90 85 80 75 72
113 111 111 110 110 110 111 110 110 111 111 111 112 112 112 114 115 117 118 118 120 122 122 122 121 119 119 118 119 119 117 114 111 107 101 95 92 89 86 81 76 72 68
111 109 107 108 109 108 108 108 109 109 109 110 111 112 113 114 115 116 118 117 117 117 118 118 117 116 117 118 117 115 112 109 103 98 93 91 87 85 82 77 73 68 65
111 111 108 108 108 108 109 109 110 110 111 111 112 112 113 113 113 112 113 114 115 116 117 117 117 116 116 114 113 109 105 99 95 93 91 86 84 81 78 73 70 66 62
113 113 112 111 111 111 111 111 112 111 112 112 112 112 112 112 112 112 113 114 114 116 117 117 116 114 112 110 107 102 97 92 91 89 87 83 82 79 74 71 67 64 60
111 112 112 112 112 112 112 112 112 112 112 112 112 112 112 112 113 113 114 114 115 115 114 113 111 110 106 102 98 93 90 88 86 85 83 81 78 75 70 67 64 61 58
109 109 110 109 109 110 110 110 111 112 112 112 112 113 113 113 114 115 115 114 114 113 111 108 105 102 98 94 90 89 86 84 83 82 79 77 73 70 66 63 61 58 54
108 108 109 109 109 109 110 110 111 112 113 113 113 114 115 115 114 114 112 110 109 107 103 99 96 93 92 91 88 85 82 81 79 77 75 71 70 68 63 60 59 56 52

GFSGL_250_spd_069.txt.gz
Wind_Speed
58 60 62 63 64 64 64 63 64 64 65 67 69 69 70 70 71 72 72 75 74 73 76 82 85 87 87 88 89 88 96 96 96 98 98 103 105 96 99 99 100 103 108
63 63 64 67 68 68 67 68 67 66 66 68 71 73 73 74 74 72 74 77 79 79 79 86 89 90 91 93 93 97 103 103 109 108 108 104 103 100 104 105 106 109 110
69 69 71 72 74 73 72 72 71 70 69 70 72 75 76 74 74 77 79 82 82 82 84 89 92 94 97 98 105 106 108 111 115 115 113 115 107 112 115 115 112 115 113
75 74 77 79 79 77 76 75 75 73 73 74 75 77 78 78 80 82 84 84 84 87 87 90 95 99 102 105 108 109 112 116 119 118 118 114 114 122 124 119 120 117 115
82 81 83 82 82 81 80 79 81 79 77 77 79 82 82 84 85 86 88 89 90 91 94 98 102 106 109 109 108 110 115 118 117 115 116 117 117 118 118 120 119 119 117
85 85 86 86 86 86 84 84 84 83 81 81 83 85 87 87 89 92 94 95 94 95 97 104 106 110 110 113 116 114 118 115 114 113 119 118 122 120 120 120 121 119 120
87 86 88 88 89 89 87 86 86 86 85 86 87 89 90 90 92 97 99 103 103 103 105 108 108 109 114 115 112 117 116 115 116 119 119 125 122 126 125 122 121 121 122
93 93 91 89 90 90 89 89 89 89 90 92 94 95 95 97 101 105 106 108 109 110 111 110 113 112 114 117 124 116 115 120 122 126 127 125 123 123 123 123 124 124 125
98 94 94 94 94 94 93 94 94 94 94 94 96 98 102 106 108 107 109 110 111 113 113 111 110 114 117 118 121 120 120 122 127 128 128 125 123 127 127 128 129 128 127
98 98 97 97 97 96 97 98 100 99 100 103 105 106 107 109 109 110 112 110 110 114 116 115 115 114 118 124 123 120 122 127 125 127 125 127 126 127 130 131 130 131 131
102 105 106 103 104 106 106 106 109 110 113 112 111 111 111 109 111 112 113 115 115 117 114 116 118 123 123 126 125 125 128 128 125 124 126 128 129 129 131 135 135 134 135
104 103 104 103 104 105 106 107 111 113 113 112 110 112 112 112 114 113 115 118 121 121 122 124 124 123 127 130 132 133 131 128 125 127 127 127 130 131 132 134 137 138 137
115 113 112 112 109 107 107 107 107 108 111 112 111 110 109 111 113 116 120 121 121 119 124 124 125 125 129 130 133 131 128 126 127 128 129 131 132 132 134 135 134 134 134
117 116 116 114 112 109 108 108 110 115 117 116 118 116 115 117 118 119 119 120 121 123 121 123 126 130 131 131 129 127 126 127 129 129 130 132 134 135 135 134 133 133 132
116 114 111 112 113 113 110 110 108 110 113 113 115 117 117 117 120 122 123 123 123 125 127 133 129 128 126 124 124 125 127 128 130 131 132 133 134 134 135 135 133 131 130
108 110 109 109 109 108 110 112 113 113 114 115 117 119 121 121 122 125 125 128 130 132 128 124 123 122 121 121 123 125 127 128 129 131 131 132 134 135 135 135 133 130 127
104 105 105 106 111 111 114 118 120 121 120 121 121 124 125 123 124 126 125 122 119 117 117 119 118 118 119 120 122 124 126 127 128 129 131 131 132 133 133 132 130 126 121
103 103 103 103 103 104 106 110 113 117 117 116 117 119 121 119 116 116 117 116 114 114 115 116 118 118 118 120 122 123 125 127 128 128 128 128 128 128 127 125 122 119 115
107 105 102 103 103 103 105 106 108 108 109 109 110 112 113 112 114 115 116 117 116 116 117 117 117 118 119 120 120 120 122 121 122 123 123 123 123 123 121 119 117 114 110
107 108 107 107 106 106 106 105 107 109 110 110 110 112 115 114 114 115 116 117 117 117 117 116 115 115 117 117 117 116 115 116 117 118 120 121 119 119 117 116 112 109 104
107 108 108 110 111 110 110 111 110 110 110 111 112 113 114 114 115 114 115 114 113 113 113 113 112 111 112 113 114 115 116 117 118 119 119 119 117 116 114 111 108 103 99
104 105 105 106 108 109 109 109 109 110 110 110 110 110 112 113 112 112 112 112 111 112 112 112 112 114 114 115 116 118 119 119 119 119 117 115 114 111 108 105 100 95 89
99 101 101 103 105 106 107 108 108 108 109 110 110 110 110 110 110 110 112 113 113 114 115 116 116 117 117 118 119 120 120 118 117 116 114 110 107 103 100 97 93 89 83
97 99 100 102 103 105 106 106 107 108 109 109 110 110 110 111 112 113 113 114 115 117 117 118 118 118 119 120 120 119 118 116 114 111 107 104 102 97 93 89 86 83 80
99 100 101 102 104 105 107 108 109 109 110 111 112 112 113 114 114 114 115 116 116 116 117 118 118 119 118 117 117 115 112 110 107 103 100 97 94 91 87 85 83 79 75
102 103 104 104 106 107 108 109 110 110 112 112 113 113 113 113 113 114 115 115 116 116 116 115 114 113 112 110 108 106 105 103 100 96 92 91 88 84 82 81 79 75 71

GFSGL_250_spd_072.txt.gz
Wind_Speed
70 72 73 71 69 67 67 68 68 70 71 72 70 70 70 71 70 70 70 72 74 78 79 79 78 78 80 82 83 85 86 89 92 96 100 105 109 114 118 117 117 120 122
78 78 78 79 76 76 74 72 72 71 74 75 75 75 75 75 75 74 75 77 77 79 81 82 82 82 85 85 89 92 95 97 96 100 103 108 113 120 118 118 120 122 120
85 84 83 81 80 79 78 75 73 73 74 78 79 80 80 81 80 80 81 79 81 83 83 84 85 88 90 91 96 99 100 100 101 104 108 114 119 122 121 122 125 125 127
86 84 83 85 83 83 82 81 81 82 83 82 83 83 84 84 85 85 85 84 84 86 87 89 92 93 95 96 99 103 105 107 109 110 114 117 119 120 123 125 126 125 125
90 89 90 90 85 84 86 89 90 90 89 86 85 86 87 87 89 89 89 89 89 90 92 94 97 99 100 102 104 107 110 112 114 117 118 120 121 124 126 125 129 130 134
92 93 93 92 92 92 94 94 95 93 90 90 90 88 91 90 91 92 93 93 93 93 96 99 101 104 105 106 110 112 113 115 117 118 120 122 126 128 129 132 131 137 140
100 97 96 95 94 93 95 97 99 97 99 96 94 93 92 91 93 94 95 96 96 97 101 104 105 105 109 111 113 115 118 119 121 119 121 126 126 131 134 135 136 139 138
99 99 97 97 100 101 100 101 102 102 101 97 96 97 95 96 96 97 98 98 100 103 105 106 108 112 114 122 117 118 120 121 125 122 128 132 133 137 141 138 141 137 140
106 105 103 95 91 90 92 96 99 99 100 100 99 99 100 102 102 101 104 104 105 108 110 113 116 122 118 110 117 121 126 126 126 127 129 135 140 137 142 142 144 144 140
100 99 97 98 97 98 98 101 100 97 97 100 103 104 105 107 107 108 108 111 114 115 116 117 120 122 122 121 123 125 126 129 130 133 135 139 138 139 139 142 144 139 136
103 104 105 107 107 110 110 113 111 106 105 105 103 104 110 112 115 115 111 114 117 121 122 122 124 122 122 122 126 128 129 133 134 139 137 137 140 140 143 141 138 134 134
116 117 113 115 118 121 122 119 117 116 112 112 114 113 114 115 114 115 117 117 119 120 121 121 120 122 124 126 128 130 134 136 136 138 139 141 145 145 139 135 132 134 135
123 124 123 123 122 122 119 117 115 118 118 120 122 121 121 121 122 122 122 121 120 120 121 124 125 127 128 129 132 133 133 137 138 140 141 140 140 132 130 130 130 132 134
120 119 118 117 118 121 121 116 113 115 119 117 119 119 123 125 124 122 122 123 123 123 125 125 125 128 129 130 131 134 137 139 140 139 137 131 128 129 129 129 129 132 133
110 109 110 110 109 109 109 109 112 113 114 116 119 122 125 126 126 126 126 126 128 129 128 130 129 129 131 131 132 137 139 137 132 129 126 127 127 129 128 129 130 130 131
105 104 104 106 105 106 105 103 103 105 108 111 113 114 116 116 117 118 120 121 123 124 126 128 132 133 134 135 136 133 128 128 128 125 124 125 126 127 128 128 129 129 128
105 105 105 104 104 105 104 104 104 106 106 107 108 109 109 111 113 114 115 115 115 118 120 122 122 121 122 122 122 123 124 125 125 125 125 124 125 126 126 126 127 126 125
106 106 107 107 106 105 105 106 106 104 105 105 107 106 108 108 109 112 114 114 113 114 115 116 118 117 118 119 120 121 121 123 124 124 123 124 123 122 122 122 123 124 123
104 106 107 109 108 106 107 109 109 108 108 109 109 108 108 109 110 111 112 113 113 113 113 115 117 118 118 118 118 119 120 121 121 120 119 119 119 120 121 121 122 122 120
104 107 108 107 106 108 108 110 110 110 111 112 113 112 112 111 112 112 112 113 113 113 114 115 116 117 118 117 117 117 117 117 116 116 116 117 118 120 121 120 119 118 116
104 103 104 104 106 106 106 106 107 108 108 109 110 110 111 112 112 113 114 114 114 115 116 116 116 116 115 114 114 114 114 114 114 116 117 118 120 120 119 118 116 114 112
98 100 101 102 103 104 102 101 101 102 102 102 104 106 107 109 110 111 111 112 111 112 112 112 112 112 112 112 113 115 116 117 117 118 118 119 119 118 117 115 111 107 104
94 98 100 100 99 99 99 98 98 99 99 99 101 102 103 104 106 107 108 109 110 110 111 111 112 113 114 115 116 117 118 118 118 118 118 117 116 115 112 107 104 100 95
91 94 93 93 93 93 94 96 99 101 101 102 102 104 104 105 107 108 110 111 112 113 113 114 115 115 115 116 117 118 118 118 117 116 114 112 109 105 102 99 95 92 89
92 95 94 93 93 95 97 98 99 101 103 105 106 106 107 108 109 110 111 111 112 113 114 114 114 115 114 114 115 115 114 113 111 109 107 104 102 98 93 90 87 85 82
94 94 97 98 98 99 100 100 102 103 104 105 106 107 108 109 109 110 109 109 110 111 112 112 111 111 111 110 108 107 107 105 102 100 97 96 94 90 86 83 81 80 76

GFSGL_250_spd_075.txt.gz
Wind_Speed
76 75 74 75 77 79 82 84 83 83 82 79 77 72 73 76 76 76 75 76 78 80 82 82 83 84 84 86 85 86 86 86 88 90 95 96 98 100 102 104 108 111 113
83 83 81 81 82 83 83 84 85 87 86 85 81 77 77 75 77 78 77 78 81 83 84 85 87 89 88 89 90 91 91 92 94 95 97 99 101 104 106 108 111 115 117
85 86 87 88 89 88 87 87 87 87 87 87 85 84 83 82 83 85 86 87 88 86 87 88 89 90 92 92 94 94 96 96 97 99 99 102 104 108 108 113 117 119 120
93 94 94 95 93 92 91 91 90 92 93 94 92 89 88 87 89 92 93 92 88 87 89 90 91 91 93 94 95 96 98 100 103 102 105 108 110 110 114 119 121 118 124
100 100 99 99 99 97 98 98 97 96 96 95 94 92 90 90 91 92 93 93 94 94 94 94 94 94 95 95 96 99 103 105 105 107 108 111 114 116 119 121 122 122 128
103 103 105 104 102 101 101 101 98 99 99 99 97 96 94 93 94 97 98 100 99 100 98 96 95 96 97 98 100 103 106 108 110 111 112 115 119 121 125 123 129 129 128
109 108 108 106 103 100 100 100 98 98 99 100 99 95 97 98 100 102 102 100 97 98 97 98 99 100 102 104 105 107 110 112 115 118 121 125 127 125 129 128 130 131 133
113 111 108 106 105 104 103 103 101 100 101 103 102 102 103 100 97 94 94 95 96 97 98 101 103 105 107 108 111 113 115 118 119 124 124 124 123 124 129 130 132 133 136
108 106 106 106 108 108 106 105 107 108 107 106 104 102 101 103 102 102 103 105 106 103 103 105 104 105 109 112 115 118 120 120 120 121 121 121 124 129 131 134 135 138 140
102 102 102 102 100 97 96 99 99 100 103 105 104 107 110 109 108 113 116 114 115 117 114 114 113 111 114 112 115 117 120 122 123 124 125 126 131 132 135 137 140 141 144
107 107 109 107 107 108 106 106 108 108 110 112 115 114 116 116 119 121 120 121 124 124 122 122 121 121 121 121 124 125 126 128 128 129 131 132 135 136 137 140 142 143 145
122 122 118 117 118 119 117 114 119 121 118 119 119 122 124 124 128 126 125 124 125 124 126 124 125 123 124 123 123 126 126 127 129 131 133 134 137 138 140 143 145 147 147
125 126 125 126 127 127 126 126 127 126 126 125 124 126 128 131 129 129 128 124 119 120 123 124 126 124 124 127 128 131 132 132 134 134 135 137 139 140 141 142 143 145 148
122 123 124 125 125 126 125 125 126 127 126 126 125 124 124 122 119 118 116 117 117 116 116 116 117 118 120 124 126 128 128 129 130 132 134 136 135 135 135 134 130 129 129
111 112 113 117 117 117 117 117 115 116 115 115 113 113 114 114 113 112 111 111 111 113 113 114 114 115 116 117 119 119 121 123 123 123 123 125 126 125 125 125 126 127 129
108 109 110 112 112 112 113 113 111 112 111 111 111 110 109 110 110 111 111 110 109 111 111 111 112 114 116 116 116 115 117 119 120 120 121 123 123 123 123 124 125 127 128
105 105 106 107 108 108 109 110 110 111 111 111 110 110 109 110 111 112 111 111 110 111 111 111 112 113 113 113 114 115 116 117 118 120 120 121 123 124 124 124 124 124 124
99 99 102 104 105 105 105 106 106 107 108 107 106 108 108 110 110 111 111 112 112 112 112 111 111 111 111 112 113 115 116 118 119 120 120 121 121 122 122 121 121 121 122
94 95 98 100 102 102 102 103 105 105 108 108 106 106 108 109 111 110 110 111 112 111 111 110 111 112 113 114 115 117 117 117 117 118 119 120 120 119 119 119 119 119 119
90 91 93 96 99 100 100 102 104 103 105 106 108 107 108 109 109 111 109 109 110 110 110 111 111 111 113 114 115 116 116 117 118 118 118 118 118 118 117 117 117 117 118
88 90 92 94 96 98 99 101 101 101 101 103 104 103 105 105 105 106 105 103 103 104 106 107 109 109 110 110 111 112 113 114 115 116 116 116 116 116 116 116 117 117 116
87 87 89 90 91 93 95 97 99 100 101 102 102 102 102 102 102 102 103 104 104 104 104 104 106 106 107 108 109 110 112 113 114 115 116 117 117 117 116 115 114 113 111
85 87 87 89 90 92 93 93 94 95 97 98 98 97 98 99 99 99 100 102 102 103 104 105 106 106 107 108 110 111 112 113 114 115 115 114 113 112 111 109 107 105 102
85 86 87 88 90 91 92 92 92 93 94 95 95 95 96 98 99 101 102 103 104 105 106 108 108 109 110 110 111 111 110 109 109 108 107 107 107 106 104 101 99 97 94
86 87 88 89 90 90 89 92 92 94 95 96 96 96 97 98 99 101 102 103 104 105 106 107 107 107 107 107 106 105 104 102 102 102 101 100 100 99 97 95 92 90 87
86 86 87 87 88 89 91 92 93 93 95 96 96 96 97 97 99 99 100 101 101 101 102 102 102 102 100 99 98 99 98 97 97 96 95 94 92 91 89 87 85 83 80